Regional Weather Roundup
Issued by NWS

Home | Current Version | Previous Version | Graphics & Text | Print | Product List | Glossary On
Versions: 1 2 3 4 5 6 7 8 9 10 11 12 13 14 15 16 17 18 19 20 21 22 23 24 25 26 27 28 29 30 31 32 33 34 35 36 37 38 39 40 41 42 43 44 45 46 47 48 49 50
000
ASUS43 KIND 250909
RWRIN

WEATHER ROUNDUP FOR INDIANA
NATIONAL WEATHER SERVICE INDIANAPOLIS IN
400 AM EST THU DEC 25 2014

NOTE: "FAIR" INDICATES FEW OR NO CLOUDS BELOW 12,000 FEET WITH NO
SIGNIFICANT WEATHER AND/OR OBSTRUCTIONS TO VISIBILITY.

* - STATION DOES NOT REPORT WEATHER SUCH AS PRECIPITATION OR FOG.

+ - STATION NOT QUALITY CONTROLLED BY THE NATIONAL WEATHER SERVICE.
    USE DATA WITH CAUTION...ESPECIALLY DEWPOINT AND RELATIVE
    HUMIDITY OBSERVATIONS.

INZ001>003-010>013-019-020-251000-
NORTHWEST INDIANA

CITY           SKY/WX    TMP DP  RH WIND       PRES   REMARKS
GARY /AIRPORT/ CLOUDY    38  31  74 W12       29.77R
KNOX *+        CLOUDY    36  30  80 W15       29.75R
LA PORTE +     CLOUDY    37  34  87 W10       29.74R
MICHIGAN CITY+ CLOUDY    36  32  87 W7G18     29.75R
MONTICELLO +   CLOUDY    36  34  93 W12G20    29.79R
RENSSELAER +   CLOUDY    36  36 100 W17       29.80R
VALPARAISO     CLOUDY    36  32  85 W14       29.76R

$$

LMZ046-743>745-251000-
SOUTHERN LAKE MICHIGAN

STATION/POSITION TIME  TEMP WIND        PRES
                       AIR  DIR/SP/G
                 (UTC) (F)  (DEG/KT/KT) (MB)
MICHIGAN CITY    0900   37  240/ 22/ 25   N/A

$$

INZ004-005-014>016-021>024-251000-
NORTH CENTRAL INDIANA

CITY           SKY/WX    TMP DP  RH WIND       PRES   REMARKS
GOSHEN         CLOUDY    36  33  89 W14       29.71R
LOGANSPORT +   CLOUDY    36  32  87 W17G25    29.80R
PERU/GRISSOM   CLOUDY    36  36 100 W17       29.78R
ROCHESTER +    CLOUDY    37  36  93 W12G20    29.76R
SOUTH BEND     CLOUDY    37  32  82 W13       29.73R
WARSAW +       CLOUDY    36  34  93 W17       29.73R

$$

INZ006>009-017-018-025>027-251000-
NORTHEAST INDIANA

CITY           SKY/WX    TMP DP  RH WIND       PRES   REMARKS
ANGOLA *+      CLOUDY    36  34  93 W10       29.67R
AUBURN +       CLOUDY    36  32  87 W9G17     29.71R
FORT WAYNE     CLOUDY    36  33  89 W17       29.74R
HUNTINGTON +   CLOUDY    35  34  96 W12G22    29.75R WCI  27

$$

INZ028-029-035-036-043>045-051>053-251000-
WEST CENTRAL INDIANA

CITY           SKY/WX    TMP DP  RH WIND       PRES   REMARKS
GREENCASTLE +  CLOUDY    34  30  86 W9        29.87R WCI  26
LAFAYETTE      CLOUDY    36  32  85 W12       29.82R
TERRE HAUTE    CLOUDY    37  32  82 W12       29.90R

$$

INZ030>032-037>040-046>048-054>057-064-065-251000-
CENTRAL INDIANA

CITY           SKY/WX    TMP DP  RH WIND       PRES   REMARKS
CP ATTERBURY + CLOUDY    36  34  93 MISG      29.88R
FRANKFORT +    DRIZZLE   36  36 100 SW20      29.83R
GREENWOOD *+   CLOUDY    36  32  87 W15G21    29.86
INDIANAPOLIS   CLOUDY    34  33  96 W12       29.85R WCI  25
-EAGLE CREEK   CLOUDY    35  33  92 W8G16     29.84R WCI  29
KOKOMO *+      CLOUDY    36  32  87 W17G24    29.79R
MARION +       CLOUDY    35  33  89 W15       29.79R WCI  26
MT COMFORT *+  CLOUDY    36 N/A N/A W14       29.84R
SHELBYVILLE    CLOUDY    38  34  85 W12       29.84R
ZIONSVILLE +   CLOUDY    36  32  86 W16G23    29.83R

$$

INZ033-034-041-042-049-050-058-059-251000-
EAST CENTRAL INDIANA

CITY           SKY/WX    TMP DP  RH WIND       PRES   REMARKS
MUNCIE         CLOUDY    37  33  85 W16       29.79R

$$

INZ060-061-067>069-081>083-085>088-251000-
SOUTHWEST INDIANA

CITY           SKY/WX    TMP DP  RH WIND       PRES   REMARKS
EVANSVILLE     CLOUDY    40  34  79 SW6       29.97R
HUNTINGBURG *+ CLOUDY    37  30  75 W12       29.96R
WASHINGTON +   CLOUDY    38  30  74 W13G18    29.93R

$$

INZ062-063-066-070>080-084-089>092-251000-
SOUTH CENTRAL AND SOUTHEAST INDIANA

CITY           SKY/WX    TMP DP  RH WIND       PRES   REMARKS
BLOOMINGTON    CLOUDY    37  33  85 W8G20     29.89R

$$




USA.gov is the U.S. government's official web portal to all federal, state and local government web resources and services.